Find Starlink 30911

NORAD ID: 58374 Int'l Des: 2023-178 Owner: SPXS Country: US Constellation: starlink operational
LEOCIRCULAR

当前视图

正在加载3D地球...

About Starlink 30911

Starlink 30911 (NORAD 58374) is a starlink constellation satellite (v2 mini) launched Nov 20, 2023 by SPXS of US. It operates in LEO, CIRCULAR orbit with a mass of 730.00 kg.

即将过境

Passes for default location (London). Set your location on the main map for personalized predictions.

高度历史

Loading altitude history...

两行轨道根数

1 58374U 23178A 26235.56614314 .00003938 00000-0 12763-3 0 9991
2 58374 53.1601 302.2099 0000370 116.4888 243.6153 15.34395129155485
Epoch: Aug 23, 2026 • Age: 13 hours

当前状态

高度 463.5 km
远地点 / 近地点 N/A
速度 7.64 km/s
星下点 -0.37°S, 104.35°E
发射日期 Nov 20, 2023
运行时间 2.7 years
类型 internet

技术详情

分类 Payload
质量 730.00 kg
干质量 700.00 kg
总质量 730.00 kg
长度 0.30 m
直径 4.10 m
跨度 29.00 m
形状 Box + pan
制造商 SPXS
平台类型 Starlink V2M
阶段状态 In Orbit
所有者/国家 SPXS/US

Most Searched